This is the latest recevied weather packets stored in our database for station/object ED1ZAI-13. If no packets are shown the sender has not sent any weather packets the latest 1 day(s).
| Time | Temp. | Humidity | Pressure | Rain* | Wind** | Luminosity | Snow |
|---|---|---|---|---|---|---|---|
| 1778020293 | 7.78° C | 67% | 1011.6 hPa | 0 mm | 0 m/s | - | - |
| 1778019693 | 7.78° C | 66% | 1011.7 hPa | 0 mm | 0 m/s | - | - |
| 1778019093 | 7.22° C | 66% | 1011.8 hPa | 0 mm | 0 m/s | - | - |
| 1778018493 | 8.33° C | 64% | 1011.7 hPa | 0 mm | 0 m/s | - | - |
| 1778014893 | 7.78° C | 65% | 1011.4 hPa | 0 mm | 0 m/s | - | - |
| 1778014293 | 7.78° C | 65% | 1011.4 hPa | 0 mm | 0 m/s | - | - |
| 1778013692 | 7.78° C | 65% | 1011.4 hPa | 0 mm | 0 m/s | - | - |
| 1778013092 | 7.22° C | 66% | 1011.3 hPa | 0 mm | 0.45 m/s, 292° | - | - |
| 1778012493 | 7.22° C | 65% | 1011.2 hPa | 0 mm | 0.89 m/s, 279° | - | - |
| 1778011893 | 7.22° C | 63% | 1011.1 hPa | 0 mm | 0.89 m/s, 296° | - | - |
| 1778011292 | 8.33° C | 62% | 1010.9 hPa | 0 mm | 0.89 m/s, 318° | - | - |
| 1778010692 | 8.33° C | 60% | 1010.9 hPa | 0 mm | 0.45 m/s, 324° | - | - |
| 1778010092 | 8.89° C | 60% | 1010.7 hPa | 0 mm | 0.45 m/s, 286° | - | - |
| 1778009491 | 10° C | 56% | 1010.5 hPa | 0 mm | 0.45 m/s, 359° | - | - |
| 1778008893 | 10.56° C | 54% | 1010.4 hPa | 0 mm | 0 m/s | - | - |
| 1778008292 | 10.56° C | 53% | 1010.3 hPa | 0 mm | 0 m/s | - | - |
| 1778007692 | 11.11° C | 52% | 1010.3 hPa | 0 mm | 0 m/s | - | - |
| 1778007093 | 11.11° C | 51% | 1010.2 hPa | 0 mm | 0.45 m/s, 285° | - | - |
| 1778006493 | 11.11° C | 50% | 1010.1 hPa | 0 mm | 0 m/s | - | - |
| 1778005893 | 11.67° C | 47% | 1010 hPa | 0 mm | 0.45 m/s, 346° | - | - |
| 1778005293 | 12.78° C | 42% | 1009.9 hPa | 0 mm | 0.89 m/s, 254° | - | - |
| 1778004692 | 12.78° C | 39% | 1009.7 hPa | 0 mm | 0.45 m/s, 295° | - | - |
| 1778004092 | 13.33° C | 41% | 1009.6 hPa | 0 mm | 0.45 m/s, 268° | - | - |
| 1778003494 | 13.33° C | 40% | 1009.6 hPa | 0 mm | 0.45 m/s, 244° | - | - |
| 1778002893 | 14.44° C | 37% | 1009.6 hPa | 0 mm | 0.89 m/s, 271° | - | - |
* Rain latest hour (hover to see other rain measurements)
** Current wind speed in m/s (hover to see current wind gust speed)